Volver al catálogo

FENGYUN 1C DEB

ActivoSSO
NORAD 30134·DEBRIS·🇨🇳 China

Lanzado May 10, 1999 desde Taiyuan Satellite Launch Center

Loading…

Próximos Pases (próximas 24 horas)

TLE

ActualizadoSource: Space-Track

Época: Sep 14, 2026, 12:47 UTC

1 30134U 99025SP  26257.53286631  .00000490  00000-0  28107-3 0  9996
2 30134  98.6801 273.6408 0019956 117.8015  44.4515 14.13770465 11393

Sigue FENGYUN 1C DEB en tiempo real con AllMySat

Download on the App Store